Starlink 11172

operational
NORAD ID: 60193 Int'l Des: 2024-124 Owner: SPXS Country: US Constellation: starlink
LEOCIRCULAR

关于 Starlink 11172

正在加载描述...

实时位置

正在加载3D地球...

即将过境

高度历史

Altitude vs Time

uPlot chart will show altitude changes over time

两行轨道根数

1 60193U 24124L 25256.88479598 -.00003230 00000-0 -21800-4 0 9995
2 60193 53.1593 312.9272 0001290 88.3665 271.7500 15.69716583 68761
Epoch: Sep 13, 2025 • Age: 44 hours

当前状态

高度 372.4 km
速度 7.69 km/s
星下点 -37.01°S, 14.63°E
发射日期 Jul 3, 2024
运行时间 1.2 years
类型 internet

技术详情

分类 Payload
质量 960.00 kg
干质量 910.00 kg
总质量 960.00 kg
长度 0.30 m
直径 4.10 m
跨度 29.00 m
形状 Box + pan
制造商 SPXS
平台类型 Starlink V2MD
阶段状态 In Orbit
所有者/国家 SPXS/US

大型星座

Loading constellations...